Home > Weather > Alsdorf > Past weeks

Flag for Germany Past Weather in Alsdorf, North Rhine-Westphalia, Germany — Yesterday and Last 2 Weeks

Now
72 °F

Scattered clouds.


Feels Like: 75 °F
Forecast: 56 / 72 °F
Wind: 3 mph from Northeast

Location: Maastricht Airport Zuid Limburg

Current Time: May 27, 2016 at 2:21:47 PM

Latest Report: May 27, 2016 at 1:55 PM


Visibility: N/A

Pressure: 29.98 "Hg

Humidity: 65%

Dew Point: 59 °F

Location of AlsdorfLocation

Past Weather in Alsdorf — Graph

°F

Alsdorf Temperature Yesterday

Maximum temperature yesterday: 72 °F (at 3:25 PM)
Minimum temperature yesterday: 48 °F (at 4:25 AM)
Average temperature yesterday: 61 °F

High & Low Weather Summary for the Past Weeks

 TemperatureHumidityPressure
High75 °F (May 21, 3:55 PM)100% (May 19, 1:25 AM)30.15 "Hg (May 19, 1:25 AM)
Low41 °F (May 15, 4:55 AM)33% (May 13, 6:25 PM)29.47 "Hg (May 12, 4:55 PM)
Average56 °F73%29.92 "Hg
* Reported May 12 12:25 PM — May 27 12:55 PM, Alsdorf, Weather by CustomWeather, © 2016

Note: Actual official high and low records may vary slightly from our data, if they occured in-between our weather recording intervals... More about our weather records

Advertising

Alsdorf Weather History for the Previous 24 Hours

Scroll right to see more
 ConditionsComfort  
Time TempWeatherWind HumidityBarometerVisibility
12:55 PM
Fri, May 27
70 °FPassing clouds.7 mph69%29.98 "HgN/A
12:25 PM68 °FPassing clouds.5 mph73%29.98 "HgN/A
11:55 AM68 °FScattered clouds.6 mph73%29.98 "Hg6 mi
11:25 AM68 °FPartly sunny.6 mph73%29.98 "HgN/A
10:55 AM64 °FClear.5 mph83%29.98 "Hg4 mi
10:25 AM66 °FPartly sunny.5 mph73%29.98 "Hg4 mi
9:55 AM64 °FClear.3 mph78%29.98 "Hg4 mi
9:25 AM63 °FClear.2 mph77%29.98 "Hg4 mi
8:55 AM63 °FClear.3 mph77%29.98 "Hg4 mi
8:25 AM61 °FClear.6 mph83%29.98 "Hg4 mi
7:55 AM61 °FPassing clouds.8 mph77%29.95 "Hg4 mi
7:25 AM59 °FClear.6 mph82%29.95 "Hg4 mi
6:55 AM57 °FFog.7 mph88%29.95 "Hg3 mi
6:25 AM57 °FPassing clouds.8 mph88%29.95 "Hg4 mi
5:55 AM57 °FFog.7 mph88%29.95 "Hg3 mi
5:25 AM57 °FFog.8 mph88%29.95 "Hg3 mi
4:55 AM57 °FPassing clouds.7 mph88%29.95 "Hg4 mi
4:25 AM57 °FPassing clouds.8 mph88%29.95 "Hg4 mi
3:55 AM57 °FPassing clouds.7 mph88%29.95 "Hg4 mi
3:25 AM59 °FPassing clouds.6 mph82%29.95 "Hg4 mi
2:55 AM59 °FClear.8 mph82%29.95 "Hg5 mi
2:25 AM59 °FClear.7 mph77%29.95 "Hg6 mi
1:55 AM59 °FClear.8 mph77%29.95 "Hg6 mi
1:25 AM59 °FPassing clouds.10 mph82%29.95 "Hg6 mi
12:55 AM59 °FLight rain. Passing clouds.7 mph82%29.98 "HgN/A
12:25 AM61 °FClear.8 mph72%29.98 "HgN/A
11:55 PM
Thu, May 26
63 °FClear.9 mph64%29.98 "HgN/A
11:25 PM63 °FPassing clouds.9 mph64%29.98 "HgN/A
10:55 PM63 °FPartly cloudy.8 mph64%29.98 "HgN/A
10:25 PM64 °FClear.8 mph60%29.98 "HgN/A
9:55 PM63 °FClear.9 mph68%29.95 "HgN/A
9:25 PM64 °FClear.7 mph64%29.95 "HgN/A
8:55 PM66 °FClear.7 mph60%29.95 "HgN/A
8:25 PM66 °FClear.6 mph60%29.95 "HgN/A
7:55 PM66 °FMild.7 mph60%29.95 "HgN/A
7:25 PM68 °FClear.8 mph56%29.95 "HgN/A
6:55 PM70 °FClear.7 mph53%29.95 "HgN/A
6:25 PM70 °FClear.8 mph57%29.95 "HgN/A
5:55 PM70 °FMild.6 mph53%29.95 "HgN/A
5:25 PM70 °FMild.6 mph53%29.98 "HgN/A
4:55 PM72 °FClear.3 mph50%29.98 "HgN/A
4:25 PM72 °FClear.7 mph44%29.98 "HgN/A
3:55 PM72 °FPartly sunny.5 mph44%29.98 "HgN/A
3:25 PM72 °FClear.3 mph47%29.98 "HgN/A
2:55 PM68 °FClear.2 mph56%29.98 "HgN/A
2:25 PM68 °FPartly sunny.3 mph53%29.98 "HgN/A
Weather by CustomWeather, © 2016

See weather overviewHow to use our weather pages